NOAA-16
1 26536U 00055A 11082.65611643 -.00000223 00000-0 -95025-4 0 02353
2 26536 099.1487 111.4297 0009713 272.6730 087.3331 14.12601878541287
NOAA-17
1 27453U 02032A 11082.75020005 -.00000057 00000-0 -67508-5 0 02290
2 27453 098.3898 126.3438 0012317 044.1158 316.0996 14.24247831454498
NOAA-18
1 28654U 05018A 11082.82234141 .00000137 00000-0 10064-3 0 07113
2 28654 098.9886 033.7998 0014264 349.0260 011.0589 14.11450268300880
NOAA-19
1 33591U 09005A 11082.80068840 .00000167 00000-0 11710-3 0 09044
2 33591 098.8217 024.4207 0013468 215.3670 144.6600 14.11143288109344
HUBBLE
1 20580U 90037B 11081.63129642 .00000849 00000-0 51819-4 0 7333
2 20580 028.4716 221.8120 0003172 281.0775 078.9467 15.01221220946639
ISS
1 25544U 98067A 11084.03009690 .00020956 00000-0 16115-3 0 643
2 25544 051.6460 232.6759 0001309 043.9545 060.3615 15.71987217707655
CO-58
1 28895U 05043F 11082.60808289 .00000260 00000-0 63386-4 0 08332
2 28895 097.9814 322.2477 0018967 128.2053 232.0873 14.60034222287759
FALCON
1 30776U 07006E 11082.56993320 .00001338 00000-0 97255-4 0 00656
2 30776 035.4328 147.4449 0000859 035.7065 324.3709 15.04252416222140
MAST
1 31126U 07012K 11082.96267249 .00000222 00000-0 60099-4 0 01299
2 31126 097.9042 114.9737 0095657 076.2986 284.8840 14.53693794208700
CAPE1
1 31130U 07012P 11082.73122696 .00000273 00000-0 72904-4 0 1345
2 31130 097.9076 111.6507 0103925 087.2257 274.0847 14.52316693208237
COMPASS
1 32787U 08021E 11083.69863272 .00001136 00000-0 14866-3 0 9410
2 32787 097.8545 149.0660 0016833 092.3759 267.9358 14.82218776157042
AAUSAT2
1 32788U 08021F 11083.60508368 .00000854 00000-0 11303-3 0 9312
2 32788 097.8547 149.1714 0016524 093.4319 266.8799 14.82386078157045
DO-64
1 32789U 08021G 11082.82860993 .00001585 00000-0 20249-3 0 09491
2 32789 097.8647 149.2609 0016601 094.3887 265.9201 14.82722033156937
CO-66
1 32791U 08021J 11083.69850432 .00001007 00000-0 13338-3 0 9330
2 32791 097.8565 149.0315 0017073 091.1269 269.1902 14.81946959156998
RS-30
1 32953U 08025A 11083.79505449 .00000010 00000-0 00000 0 0 5809
2 32953 082.5013 215.1763 0018716 207.6009 152.4076 12.43011236128600
TACSAT-3
1 35001U 09028A 11083.85085383 .00012383 00000-0 25033-3 0 5428
2 35001 040.4539 323.8802 0024742 302.0845 057.7595 15.45871298104017
PHARMSAT
1 35002U 09028B 11083.80707350 .00010579 00000-0 21391-3 0 5045
2 35002 040.4707 321.6299 0026175 305.0585 054.7801 15.45937232104037
HAWKSAT1
1 35003U 09028C 11083.81281473 .00036672 00000-0 52838-3 0 5569
2 35003 040.4570 302.9316 0024761 328.4671 031.4741 15.54885337104248
CP6
1 35004U 09028D 11083.83586771 .00045380 00000-0 58386-3 0 5606
2 35004 040.4570 297.6722 0024368 334.7511 025.2545 15.57857136104293
METEOR-M
1 35865U 09049A 11083.70571022 .00000176 00000-0 10000-3 0 2166
2 35865 098.7159 139.8920 0001747 290.6060 069.4877 14.21835499 78587
RS-38
1 35869U 09049E 11083.85670155 .00000177 00000-0 10000-3 0 2254
2 35869 098.7143 140.0812 0003758 279.3177 080.7563 14.22003498 78614
